Location: Avenches
(46.8809°N, 7.0410°E)
Time: 23:34:26
(UTC+00:00)

MetOp-A - Pass Details

Date: 30 March 2020
Orbit: 819 x 821 km, 98.5° (Epoch: 03 June)

Event Time Altitude Azimuth Distance (km) Brightness Sun altitude
Exits shadow 19:21:27 12° 153° (SSE) 2,251 6.0 -14.4°
Maximum altitude 19:26:20 68° 72° (ENE) 883 4.1 -15.2°
Drops below altitude 10° 19:31:41 10° 350° (N) 2,429 7.0 -16.0°
Sets 19:34:02 0° 349° (NNW) 3,366 7.9 -16.4°
